This is the latest recevied weather packets stored in our database for station/object WV8BRW. If no packets are shown the sender has not sent any weather packets the latest 10 day(s).
| Time | Temp. | Humidity | Pressure | Rain* | Wind** | Luminosity | Snow |
|---|---|---|---|---|---|---|---|
| 1777581022 | 13.89° C | 57% | 1013.9 hPa | 0 mm | - | 767 W/m² | - |
| 1777580721 | 13.89° C | 60% | 1014.1 hPa | 0 mm | - | 347 W/m² | - |
| 1777580418 | 14.44° C | 56% | 1013.9 hPa | 0 mm | - | 657 W/m² | - |
| 1777580113 | 14.44° C | 65% | 1013.9 hPa | 0 mm | - | 698 W/m² | - |
| 1777579810 | 13.89° C | 62% | 1013.9 hPa | 0 mm | - | 419 W/m² | - |
| 1777579509 | 13.33° C | 63% | 1014.1 hPa | 0 mm | - | 352 W/m² | - |
| 1777579204 | 12.78° C | 65% | 1014.4 hPa | 0 mm | - | 291 W/m² | - |
| 1777578898 | 12.78° C | 64% | 1014.4 hPa | 0 mm | - | 232 W/m² | - |
| 1777578594 | 12.78° C | 68% | 1014.5 hPa | 0 mm | - | 190 W/m² | - |
| 1777578289 | 12.78° C | 68% | 1014.3 hPa | 0 mm | - | 152 W/m² | - |
| 1777577985 | 12.22° C | 68% | 1014.5 hPa | 0 mm | - | 121 W/m² | - |
| 1777577680 | 12.22° C | 66% | 1014.5 hPa | 0 mm | - | 103 W/m² | - |
| 1777577378 | 12.22° C | 66% | 1014.4 hPa | 0 mm | - | 148 W/m² | - |
| 1777577073 | 12.78° C | 66% | 1014.5 hPa | 0 mm | - | 130 W/m² | - |
| 1777576771 | 12.78° C | 66% | 1014.5 hPa | 0 mm | - | 117 W/m² | - |
| 1777576470 | 12.78° C | 66% | 1014.2 hPa | 0 mm | - | 108 W/m² | - |
| 1777576167 | 13.89° C | 64% | 1014.2 hPa | 0 mm | - | 181 W/m² | - |
| 1777575861 | 13.89° C | 69% | 1014.2 hPa | 0 mm | - | 989 W/m² | - |
| 1777575559 | 13.89° C | 65% | 1014.2 hPa | 0 mm | - | 395 W/m² | - |
| 1777575254 | 14.44° C | 67% | 1014.1 hPa | 0 mm | - | 503 W/m² | - |
| 1777574950 | 13.33° C | 65% | 1014.3 hPa | 0 mm | - | 1100 W/m² | - |
| 1777574646 | 12.78° C | 67% | 1014.3 hPa | 0 mm | - | 504 W/m² | - |
| 1777574344 | 12.78° C | 65% | 1014.5 hPa | 0 mm | - | 987 W/m² | - |
| 1777574038 | 12.22° C | 68% | 1014.2 hPa | 0 mm | - | 256 W/m² | - |
| 1777573733 | 12.22° C | 68% | 1014.3 hPa | 0 mm | - | 298 W/m² | - |
* Rain latest hour (hover to see other rain measurements)
** Current wind speed in m/s (hover to see current wind gust speed)